Regional Weather Roundup
Issued by NWS Cleveland, OH

Home | Current Version | Previous Version | Graphics & Text | Print | Product List | Glossary On
Versions: 1 2 3 4 5 6 7 8 9 10 11 12 13 14 15 16 17 18 19 20 21 22 23 24 25 26 27 28 29 30 31 32 33 34 35 36 37 38 39 40 41 42 43 44 45 46 47 48 49 50
000
ASUS41 KCLE 110812
RWRCLE
OHIO REGIONAL WEATHER ROUNDUP
NATIONAL WEATHER SERVICE WILMINGTON, OH
300 AM EST MON DEC 11 2017

NOTE: "FAIR" INDICATES FEW OR NO CLOUDS BELOW 12,000 FEET WITH NO
SIGNIFICANT WEATHER AND/OR OBSTRUCTIONS TO VISIBILITY.

OHZ001>008-015>018-024>027-034-035-043-044-110900-
   NORTHWEST OHIO

CITY           SKY/WX    TMP DP  RH WIND       PRES   REMARKS
DEFIANCE       CLOUDY    27  21  78 SW3       30.05R
FINDLAY        FAIR      27  19  72 NW5       30.02F WCI  22
TOLEDO EXPRESS CLOUDY    23  21  92 CALM      30.02F
TOLEDO EXEC    FAIR      22  17  81 W5        30.04R WCI  16
LIMA           CLOUDY    29  23  78 NW6       30.03S WCI  23
$$

OHZ009>014-019>023-028>033-038-089-110900-
   NORTHEAST OHIO

CITY           SKY/WX    TMP DP  RH WIND       PRES   REMARKS
CLE-HOPKINS    FLURRIES  31  23  72 NW9       30.01R WCI  23
CLE-LAKEFRONT  CLOUDY    32  22  66 W16       29.98R WCI  21
CUY CO. ARPT   NOT AVBL
LORAIN-ELYRIA  CLOUDY    29  18  63 W7        30.01R WCI  22
ASHTABULA      CLOUDY    30  24  78 NW8       29.97R WCI  22
AKRON-CANTON   CLOUDY    30  20  66 W8        29.98R WCI  22
WOOSTER        CLOUDY    28  22  78 NW12      30.00R WCI  18
MANSFIELD      CLOUDY    28  21  75 W6        30.00R WCI  22
YOUNGSTOWN     FLURRIES  30  20  66 W12       29.96R WCI  20
$$

OHZ042-051>053-060>062-070>072-077>081-110900-
  SOUTHWEST OHIO

CITY           SKY/WX    TMP DP  RH WIND       PRES   REMARKS
CINC-COVINGTON FAIR      28  22  78 W6        30.08S WCI  22
CINC-LUNKEN    FAIR      30  23  75 W5        30.12S WCI  25
HAMILTON       FAIR      20  18  92 CALM      30.10S
DAYTON         CLOUDY    30  23  75 NW8       30.06F WCI  22
WRIGHT-PAT AFB CLOUDY    31  22  71 W9        30.06S WCI  23
DAYTON GENERAL CLOUDY    30  22  72 N6        30.06S WCI  24
WILMINGTON     CLOUDY    29  23  78 NW6       30.06R WCI  23
$$

OHZ036-037-039>041-045>050-054>059-063>069-073>076-082>088-110900-
  CENTRAL AND SOUTHEAST OHIO

CITY           SKY/WX    TMP DP  RH WIND       PRES   REMARKS
COLUMBUS       CLOUDY    32  22  66 NW10      30.05R WCI  24
OSU AIRPORT    CLOUDY    31  23  72 NW12      30.05R WCI  22
BOLTON FIELD   CLOUDY    31  23  72 NW8       30.06R WCI  23
RICKENBACK AFB CLOUDY    32  22  68 NW8       30.06R WCI  24
NEWARK         CLOUDY    32  21  64 NW13G21   30.04R WCI  22
MARION         CLOUDY    30  21  69 NW13      30.03S WCI  20
LANCASTER      CLOUDY    32  22  66 NW8       30.05R WCI  25
ZANESVILLE     CLOUDY    34  21  59 W10       30.03R WCI  26
NEW PHILLY     CLOUDY    32  21  64 W5        30.02R WCI  27
$$




USA.gov is the U.S. government's official web portal to all federal, state and local government web resources and services.